Weather Roundup
Issued by NWS Chicago, IL

Home | Current Version | Previous Version | Graphics & Text | Print | Product List | Glossary On
Versions: 1 2 3 4 5 6 7 8 9 10 11 12 13 14 15 16 17 18 19 20 21 22 23 24 25 26 27 28 29 30 31 32 33 34 35 36 37 38 39 40 41 42 43 44 45 46 47 48 49 50
000
NZUS59 KLOT 230158
HRRLOT

CHICAGO AREA WEATHER ROUNDUP
NATIONAL WEATHER SERVICE CHICAGO/ROMEOVILLE IL
900 PM CDT TUE JUL 22 2014

NOTE: "FAIR" INDICATES FEW OR NO CLOUDS BELOW 12,000 FEET WITH NO
SIGNIFICANT WEATHER AND/OR OBSTRUCTIONS TO VISIBILITY.

* THESE STATIONS ARE NOT UNDER NWS QUALITY CONTROL. THEY ALSO MAY NOT
  REPORT WEATHER SUCH AS PRECIPITATION OR FOG.

ILZ005-006-012>014-019>023-230300-
NORTHEAST ILLINOIS

CITY           SKY/WX    TMP DP  RH WIND       PRES   REMARKS
OHARE          MOCLDY    85  73  67 SW8       29.95R HX  91
MIDWAY         CLOUDY    86  75  69 SW13      29.95R HX  95
AURORA         MOCLDY    82  74  76 SW7       29.97R HX  88
WAUKEGAN         N/A     83  75  77 SW8       29.92F HX  90
DUPAGE AIRPORT MOCLDY    83  75  77 SW9       29.96R HX  90
WHEELING         N/A     87  75  67 SW8       29.96R HX  96
NORTHERLY IS     N/A     85  72  65 S9          N/A  HX  91
$$

WIZ051-052-058>065-066-070>072-230300-
SOUTHEAST WISCONSIN

CITY           SKY/WX    TMP DP  RH WIND       PRES   REMARKS
MILWAUKEE      MOCLDY    83  70  64 NW12      29.92R THUNDER HX  87
KENOSHA*         N/A     82  77  84 SW8       29.93S HX  90
WAUKESHA       PTCLDY    81  68  65 NW10G20   29.96R HX  83
$$

INZ001>003-010>013-019-020-230300-
NORTHWEST INDIANA

CITY           SKY/WX    TMP DP  RH WIND       PRES   REMARKS
GARY*          MOCLDY    84  73  70 SW6       29.96S HX  91
MICHIGAN CITY* NOT AVBL
RENSSELAER*    NOT AVBL
$$

LMZ740>746-230300-
SOUTHERN LAKE MICHIGAN

STATION/POSITION TIME  SKY/WX   TEMP WIND        PRES    VSBY
                                AIR  DIR/SP/G
                 (UTC)          (F)  (DEG/KT/KT) (MB)    (MI)
HARRISON CRIB    0100            84  220/ 14/ 17   N/A
BURNHAM HARBOR   0100            85  200/  6/ 13   N/A
CALUMET HARBOR   0100            83  200/  7/ 11 1013.2S
BURNS HARBOR     NOT AVBL
MICHIGAN CITY    0100            82  190/ 12/ 14   N/A
$$

ABBREVIATIONS USED IN REMARKS
   TC - TEMPERATURE IN CELSIUS
  WCI - WIND CHILL INDEX
   HX - HEAT INDEX
  VSB - VISIBILITY
$$



USA.gov is the U.S. government's official web portal to all federal, state and local government web resources and services.